Location: Lourdes
(43.1000°N, 0.0500°W)
Time: 18:32:08
(UTC+00:00)

Cosmos 1602 - Pass Details

Date: 30 November 2020
Orbit: 512 x 534 km, 82.5° (Epoch: 23 January)

Event Time Altitude Azimuth Distance (km) Brightness Sun altitude
Rises 17:52:10 0° 351° (N) 2,687 7.3 -15.2°
Reaches altitude 10° 17:54:20 10° 351° (N) 1,789 6.4 -15.6°
Maximum altitude 17:58:16 88° 259° (W) 535 3.7 -16.3°
Drops below altitude 10° 18:02:08 10° 174° (S) 1,760 6.5 -17.0°
Sets 18:04:15 0° 174° (S) 2,640 7.4 -17.4°
